星链-34211 (STARLINK-34211)

导读

STARLINK-34211是美国太空探索技术公司(SpaceX)发射的星链(Starlink)卫星,于2025年6月3日发射升空。作为星链星座组网的成员之一,它将与其他星链卫星协同工作,为全球多地提供高速低延迟互联网服务,助力实现全球互联网覆盖目标。

Basic Information
目录编号:
64255
目录名称:
STARLINK-34211
国际标识:
2025-119Y
轨道中心:
EARTH
卫星名称:
星链-34211
卫星全名:
星链-34211 (STARLINK-34211)
卫星状态:
在轨 (已飞行458 天)
发射日期:
2025-06-03 UTC
国别 :
美国 (US)
星等 :
--
Orbit Information
数据来源 国际轨道数据
星历时间: 2026-09-03T23:55:28+0800
19小时前
查看轨道信息
半长轴: 6861.234km
偏心率: 0.000137
轨道倾角: 43.002°
近地点辐角 275.768°
升交点赤经 22.331°
平近点角 84.302°
近地点: 482.157km
远地点: 484.037km
周期: 94.268分钟
每日圈数: 15.275641
Detailed Information
固有亮度:
5
最大亮度:
2.5
卫星平台:
Starlink V1.0
覆盖范围:
全球
运营商:
太空探索技术公司
运营商所在国:
美国
制造商(研发单位):
太空探索技术公司
制造商所在国:
美国
使用方式:
暂无
Satellite Introduction
Starlink 计划是 SpaceX 推出的全球卫星互联网项目,通过发射低轨道卫星,为全球尤其是偏远地区提供高速、低延迟的互联网服务。自 2019 年起,Starlink 已部署数千颗卫星,旨在缩小全球数字鸿沟,推动互联网普及。该项目还为军事、航空等行业提供通信支持,带来广泛经济效益。
2D Orbit Map
3D Orbit Map
Orbit Altitude Analysis Chart
Orbit Inclination Analysis Chart
Orbit Comprehensive Analysis Chart
View Comprehensive Chart
Conjunction Data List
Event ID Objects TCA Miss Dist (km) Collision Risk Probability Collision Risk Index (CRI) Action
CDM_260903-021305-322606-425521
2026-09-03T
02:13:54+0000
0.728 km
远距离
6.219012E-5 中风险 0.71
CDM_260906-153705-934806-425521
2026-09-06T
15:37:15+0000
0.752 km
远距离
3.330341E-5 中风险 0.65
CDM_260905-144205-322606-425521
2026-09-05T
14:42:13+0000
1.556 km
极远距离
4.531795E-6 低风险 0.48
CDM_260906-075005-675006-425521
2026-09-06T
07:50:57+0000
2.954 km
极远距离
1.167938E-6 低风险 0.36
CDM_260906-171105-934806-425521
2026-09-06T
17:11:24+0000
2.290 km
极远距离
1.102645E-6 低风险 0.36
CDM_260906-141305-949006-425521
2026-09-06T
14:13:11+0000
2.149 km
极远距离
1.077235E-6 低风险 0.36
CDM_260906-163405-949006-425521
2026-09-06T
16:34:24+0000
2.153 km
极远距离
1.074199E-6 低风险 0.36